Starlink 31602

operational
NORAD ID: 59202 Int'l Des: 2024-046 Owner: SPXS Country: US Constellation: starlink
LEOCIRCULAR

About Starlink 31602

Description loading...

Live Position

Loading 3D Globe...

Upcoming Passes

Altitude History

Altitude vs Time

uPlot chart will show altitude changes over time

Two-Line Element Set

1 59202U 24046B 25303.46754435 .00002556 00000-0 98378-4 0 9992
2 59202 53.1616 40.0879 0001088 92.7112 267.4013 15.30200371 93118
Epoch: Oct 30, 2025 • Age: 32 hours

Current Status

Altitude 492.2 km
Velocity 7.62 km/s
Sub-Earth Point -47.71°S, 66.27°W
Launch Date Mar 11, 2024
Age 1.6 years
Type internet

Technical Details

Classification Payload
Mass 730.00 kg
Dry Mass 700.00 kg
Total Mass 730.00 kg
Length 0.30 m
Diameter 4.10 m
Span 29.00 m
Shape Box + pan
Manufacturer SPXS
Bus Type Starlink V2M
Phase Status In Orbit
Owner/State SPXS/US

Large Constellations

Loading constellations...